Wind_Speed
5 5 5 4 4 4 4 4 5 5 6 5 5 6 6 6 6 6 7 7 7 6 7 8 8 8 7 7 8 7 7 9 10 9 10 10 10 9 9 8 8 8 8
5 5 5 5 5 4 4 4 4 5 5 5 5 6 7 7 7 7 7 7 7 7 8 8 8 8 8 9 9 8 8 9 9 10 10 10 10 10 9 9 9 8 8
6 6 6 6 6 6 5 5 4 4 5 5 5 6 7 7 7 8 8 8 8 8 8 9 9 8 8 8 9 10 10 9 9 10 10 10 11 10 9 9 9 9 9
6 6 7 7 7 7 6 6 5 5 5 5 5 6 7 7 8 8 9 9 9 9 9 9 8 9 10 9 9 10 10 10 10 9 9 9 10 10 10 10 10 9 9
7 6 7 7 7 7 6 6 6 6 6 6 5 5 7 7 7 8 9 9 9 9 9 9 9 10 10 10 10 10 11 11 10 10 9 9 9 10 10 10 11 10 10
7 7 7 7 7 7 6 7 7 6 6 6 6 5 5 6 6 7 8 8 9 9 9 9 9 10 11 12 11 10 10 10 11 11 10 10 10 10 10 9 10 10 10
8 7 7 6 7 7 6 6 6 7 7 6 6 5 5 5 6 7 8 8 9 9 9 9 9 9 10 11 12 11 10 9 10 10 10 10 11 11 10 10 10 10 11
9 8 8 7 7 7 7 7 7 7 7 7 7 7 6 6 6 7 8 9 9 9 9 9 9 9 9 10 10 10 10 9 11 11 10 10 10 10 11 11 11 12 12
9 9 9 8 8 8 8 8 8 8 8 7 8 8 8 7 7 8 8 8 8 9 9 9 8 8 8 8 8 8 9 10 11 11 11 11 11 11 11 12 13 13 13
9 10 9 9 9 9 8 8 8 9 9 8 8 8 8 7 7 8 8 8 8 9 9 9 9 8 8 8 9 9 9 10 10 10 10 11 11 11 12 12 13 13 13
10 10 10 10 10 9 9 8 8 8 8 9 9 8 8 8 8 8 9 9 9 10 10 10 10 10 10 10 10 10 10 10 10 10 11 11 11 11 12 11 11 12 12
11 11 10 10 10 10 10 10 9 9 9 9 9 9 9 9 9 9 9 10 10 10 10 10 10 11 11 11 11 11 10 11 11 11 11 11 12 12 12 11 11 11 12
12 12 11 11 11 11 11 11 10 10 10 10 10 10 10 11 11 11 11 11 11 11 11 11 11 11 12 12 12 12 12 12 12 12 12 12 12 12 12 12 12 12 12
12 12 12 12 12 12 11 11 11 11 12 11 11 11 11 11 12 12 12 13 12 12 12 13 13 13 12 12 12 13 13 13 13 13 13 13 13 13 13 13 13 13 13
13 13 13 13 13 13 13 12 12 13 13 13 13 13 13 13 12 12 13 13 14 13 13 14 14 13 13 13 13 14 14 14 14 13 13 13 13 14 14 14 14 14 15
15 14 14 14 14 14 14 14 14 14 14 14 14 14 15 14 14 14 14 15 15 15 15 15 15 14 14 14 14 14 15 15 15 15 15 15 14 15 15 15 16 16 16
15 15 15 15 15 15 15 15 16 15 15 15 16 16 16 16 16 16 16 17 16 16 16 16 16 16 15 15 15 15 15 16 17 17 16 17 16 16 17 17 18 18 19
16 16 16 16 16 16 16 17 17 17 17 16 17 17 17 17 17 18 18 18 17 17 17 17 17 17 17 17 18 17 17 17 17 18 17 18 18 18 19 20 20 20 21
17 17 17 17 17 18 18 18 18 18 18 18 18 17 18 18 18 18 19 19 19 19 19 19 19 19 19 19 19 19 19 19 19 19 19 19 20 20 21 21 22 22 22
18 18 19 18 19 19 19 19 19 19 19 20 19 19 19 19 19 19 20 20 20 20 21 21 21 21 21 21 21 21 21 21 22 22 21 22 22 22 22 23 23 24 24
20 20 20 20 19 19 19 19 19 20 20 20 20 20 21 21 20 20 20 21 21 21 22 23 23 23 23 23 23 23 23 23 23 23 23 23 23 23 24 24 25 25 26
22 22 21 21 20 20 20 20 20 21 21 20 20 20 21 21 21 22 22 22 23 23 23 24 24 24 24 24 25 25 25 25 25 24 25 25 25 25 25 25 26 26 26
23 23 22 22 22 22 22 21 21 21 22 21 21 21 22 22 22 22 23 23 23 24 24 24 25 25 25 26 26 26 26 26 26 26 26 26 26 26 26 26 27 27 27
24 24 23 24 24 23 23 23 22 22 22 22 22 22 22 22 22 22 22 23 24 24 24 25 25 25 26 26 27 26 26 26 26 27 27 27 27 26 27 28 28 28 29
25 24 24 24 25 25 24 22 23 23 23 22 23 23 23 23 22 23 23 24 24 25 25 25 26 25 26 26 27 27 27 27 27 26 26 27 28 29 29 29 29 30 30
25 25 25 25 25 24 24 23 24 24 24 23 23 24 24 24 24 24 25 25 25 26 26 26 26 26 26 26 27 28 28 28 28 28 28 29 29 29 30 30 31 31 31
Wind_Direction
315 308 303 300 295 291 285 284 273 251 243 236 233 236 236 233 230 237 241 242 244 247 251 253 254 254 255 256 250 253 253 256 257 250 247 245 242 242 242 244 246 251 252
309 303 300 301 290 287 283 284 286 268 256 249 238 236 235 237 236 238 243 243 239 246 253 257 255 255 257 258 251 254 252 253 255 251 243 241 241 243 245 246 248 253 257
305 297 295 290 288 284 280 281 286 281 262 252 248 238 234 237 239 240 244 246 244 251 260 258 255 254 257 256 253 253 249 249 251 250 244 241 243 247 247 247 249 251 256
307 298 290 285 282 280 276 275 278 278 262 254 247 242 240 242 243 244 245 246 246 252 256 259 256 256 256 259 255 250 246 251 253 249 242 241 245 247 247 248 250 250 252
313 308 297 288 281 277 275 275 275 276 268 264 254 244 245 246 246 247 244 242 245 248 254 257 255 258 258 261 264 258 255 254 252 251 246 245 247 247 248 250 249 250 252
314 312 306 295 284 277 274 274 271 271 273 268 260 251 247 249 250 249 246 244 246 249 257 259 256 255 256 259 260 263 260 262 258 256 254 251 250 252 252 254 255 256 259
309 306 301 298 289 284 280 278 272 270 273 271 261 253 250 252 248 247 246 245 246 247 254 255 258 257 260 264 263 265 264 265 259 260 262 257 252 251 250 256 260 264 263
304 301 297 293 291 287 285 280 275 275 271 264 262 262 261 257 255 252 250 249 248 245 251 252 259 262 266 270 269 266 270 270 265 262 263 262 256 252 254 259 263 266 266
304 300 296 290 285 283 283 280 275 275 270 267 269 272 272 269 263 260 258 257 256 254 254 257 265 267 275 277 271 272 274 275 272 268 265 262 259 258 259 261 263 264 267
304 297 292 289 286 285 285 282 277 277 269 266 269 270 268 269 268 267 264 258 262 262 263 268 273 272 274 274 272 275 274 274 272 271 271 266 263 261 262 263 263 266 268
301 300 292 287 285 284 283 283 279 280 272 267 268 266 264 264 263 261 262 262 263 265 263 267 270 270 272 274 275 276 275 274 274 274 270 265 267 263 262 264 264 267 270
298 298 290 283 281 281 279 280 280 280 275 270 265 265 264 262 263 262 264 264 265 266 267 267 268 271 271 271 275 279 278 277 275 275 268 263 265 265 262 264 267 268 271
294 295 291 280 278 279 278 278 277 275 271 269 265 263 263 262 262 261 263 264 262 266 269 270 273 274 277 278 277 281 281 277 273 272 269 265 264 261 261 266 269 268 271
289 288 286 281 278 276 275 277 275 273 270 268 266 264 267 267 266 266 267 266 266 268 267 268 272 276 279 281 280 280 279 276 276 275 272 268 264 262 263 265 267 270 272
290 285 282 279 275 273 273 272 272 271 272 269 266 267 271 269 266 265 267 269 270 269 269 270 273 275 277 278 279 278 276 277 277 274 272 269 269 265 268 269 268 271 274
287 286 281 280 274 272 272 272 274 272 274 270 268 268 268 268 268 269 270 271 271 270 269 270 273 276 276 278 279 279 277 276 275 272 270 270 270 267 268 270 268 269 273
284 285 286 285 279 276 273 271 273 274 273 273 270 269 270 269 270 271 271 272 271 270 270 271 273 275 277 278 278 278 276 275 274 271 270 271 272 272 271 271 269 270 273
283 283 284 286 282 279 275 271 271 274 272 273 273 270 270 270 270 271 271 271 270 271 271 271 273 274 274 276 277 277 277 276 275 272 270 272 272 273 272 272 272 272 272
283 283 283 284 284 282 278 273 270 271 271 271 273 272 271 271 271 271 271 271 270 270 271 272 272 274 274 276 276 278 278 277 278 278 274 274 274 274 273 273 276 276 276
283 282 282 282 283 282 278 272 270 270 270 271 271 271 272 270 271 271 272 271 271 271 272 274 273 273 273 274 275 278 278 279 279 279 278 277 278 277 275 277 277 277 277
282 283 283 282 281 281 279 276 273 272 270 271 272 272 270 270 271 271 272 273 272 273 274 276 274 273 273 274 276 276 277 277 279 280 279 279 279 278 278 277 277 276 276
279 280 279 279 280 280 278 277 275 272 270 271 270 271 271 271 271 271 273 274 273 274 274 276 276 274 274 275 276 274 275 276 277 278 281 281 280 279 279 278 277 277 279
277 276 276 277 277 278 278 278 276 274 272 270 269 271 273 273 273 276 275 275 275 276 275 275 276 276 276 276 276 276 276 276 277 278 280 280 279 280 280 280 279 278 279
274 273 273 274 275 276 277 275 274 275 275 272 271 271 272 273 274 275 276 276 276 277 278 278 278 277 276 276 277 277 275 276 277 278 279 280 280 281 281 282 280 280 280
272 270 271 274 273 274 276 275 274 273 273 273 271 271 272 271 272 274 276 276 276 276 278 278 280 280 277 276 277 278 278 277 277 278 280 282 282 283 282 283 282 281 281
274 272 271 272 272 272 272 273 272 272 272 273 273 272 271 272 274 275 276 276 276 277 277 277 278 279 277 276 276 277 278 278 277 278 279 282 283 283 283 283 283 283 282
Height
5867 5866 5865 5864 5863 5863 5862 5861 5860 5860 5860 5859 5859 5859 5860 5860 5860 5861 5861 5861 5862 5862 5863 5863 5863 5863 5863 5864 5864 5864 5864 5865 5865 5865 5865 5865 5865 5866 5866 5867 5867 5867 5868
5865 5864 5863 5863 5862 5861 5861 5860 5859 5859 5858 5858 5858 5858 5858 5859 5859 5859 5860 5860 5860 5861 5861 5861 5861 5861 5862 5862 5862 5862 5862 5862 5863 5863 5862 5863 5863 5863 5864 5864 5865 5865 5866
5864 5863 5862 5861 5861 5860 5859 5859 5858 5858 5857 5857 5857 5856 5857 5857 5858 5858 5858 5858 5859 5859 5859 5860 5860 5860 5860 5860 5860 5860 5860 5860 5860 5860 5860 5860 5861 5861 5862 5862 5863 5863 5864
5863 5861 5860 5860 5859 5858 5858 5858 5857 5856 5856 5856 5855 5855 5855 5856 5856 5857 5857 5857 5857 5857 5857 5858 5858 5858 5858 5858 5858 5858 5858 5858 5858 5858 5858 5858 5859 5859 5860 5860 5861 5861 5862
5862 5860 5859 5858 5857 5857 5857 5856 5856 5855 5855 5854 5854 5853 5854 5854 5854 5855 5855 5855 5856 5856 5856 5856 5856 5856 5856 5857 5856 5856 5856 5856 5856 5856 5856 5856 5857 5857 5857 5858 5858 5859 5859
5860 5859 5858 5857 5856 5855 5855 5855 5854 5853 5853 5853 5852 5852 5852 5852 5853 5853 5853 5854 5854 5854 5854 5854 5854 5854 5855 5854 5854 5854 5854 5854 5853 5854 5854 5854 5855 5855 5855 5856 5856 5857 5857
5859 5858 5857 5856 5855 5854 5853 5853 5852 5852 5851 5851 5851 5851 5851 5851 5851 5851 5851 5852 5852 5852 5853 5853 5853 5853 5852 5852 5852 5852 5852 5851 5851 5852 5852 5852 5852 5852 5853 5854 5854 5855 5855
5858 5857 5856 5854 5853 5853 5852 5852 5851 5850 5849 5849 5849 5849 5849 5850 5849 5849 5849 5850 5850 5850 5850 5851 5851 5850 5851 5851 5850 5850 5850 5849 5849 5849 5849 5849 5849 5850 5851 5851 5852 5852 5852
5856 5855 5854 5853 5852 5852 5851 5850 5849 5848 5848 5848 5848 5848 5848 5848 5848 5848 5847 5847 5848 5848 5848 5848 5848 5848 5848 5848 5848 5848 5848 5848 5847 5847 5846 5847 5847 5848 5848 5848 5849 5849 5850
5854 5853 5852 5851 5850 5850 5849 5848 5847 5847 5846 5846 5846 5846 5846 5845 5846 5846 5846 5846 5846 5846 5846 5846 5846 5846 5846 5846 5846 5846 5846 5845 5845 5844 5844 5844 5844 5845 5845 5846 5846 5846 5846
5852 5851 5849 5849 5848 5847 5847 5846 5845 5844 5844 5844 5844 5844 5843 5844 5844 5844 5844 5844 5844 5844 5844 5844 5844 5844 5844 5844 5843 5843 5843 5843 5842 5841 5841 5841 5841 5842 5842 5842 5843 5843 5843
5849 5848 5847 5846 5845 5845 5844 5844 5843 5842 5842 5842 5842 5841 5841 5842 5842 5842 5842 5842 5842 5842 5842 5842 5842 5841 5841 5841 5841 5841 5840 5840 5839 5839 5837 5838 5838 5839 5839 5839 5840 5840 5840
5846 5845 5844 5843 5842 5842 5841 5841 5840 5840 5840 5839 5839 5839 5839 5839 5839 5840 5839 5839 5839 5839 5839 5839 5839 5839 5838 5838 5838 5837 5837 5837 5836 5836 5835 5835 5835 5835 5836 5836 5836 5836 5837
5843 5842 5841 5840 5840 5839 5838 5838 5838 5837 5837 5837 5837 5837 5836 5836 5836 5836 5836 5836 5837 5837 5836 5836 5836 5836 5835 5835 5835 5834 5833 5833 5833 5833 5832 5832 5832 5832 5833 5833 5833 5833 5833
5840 5839 5838 5837 5836 5836 5835 5835 5834 5834 5834 5833 5833 5833 5833 5833 5833 5833 5833 5833 5834 5834 5834 5833 5833 5832 5832 5832 5831 5831 5830 5830 5830 5829 5829 5829 5829 5829 5829 5829 5829 5829 5829
5836 5835 5834 5833 5833 5832 5832 5831 5831 5830 5830 5830 5830 5830 5830 5830 5830 5830 5830 5830 5830 5830 5830 5830 5829 5829 5829 5828 5828 5827 5827 5827 5826 5826 5826 5825 5825 5825 5825 5825 5825 5824 5824
5833 5832 5830 5830 5829 5828 5828 5827 5827 5827 5826 5826 5826 5826 5826 5826 5826 5826 5826 5826 5826 5826 5826 5826 5825 5825 5825 5824 5824 5823 5823 5822 5822 5822 5821 5821 5821 5820 5820 5820 5820 5819 5819
5829 5828 5827 5826 5825 5824 5823 5823 5823 5822 5822 5822 5822 5822 5822 5822 5822 5822 5822 5822 5822 5822 5822 5822 5821 5821 5821 5820 5820 5819 5818 5818 5817 5817 5816 5816 5815 5815 5815 5815 5814 5814 5813
5825 5824 5823 5822 5821 5820 5819 5818 5818 5818 5817 5817 5817 5817 5817 5817 5817 5817 5817 5817 5817 5817 5817 5817 5817 5816 5816 5815 5815 5814 5813 5813 5812 5811 5811 5810 5810 5809 5809 5809 5808 5808 5807
5820 5819 5819 5817 5816 5815 5814 5813 5813 5812 5812 5812 5812 5812 5812 5812 5812 5812 5812 5812 5812 5812 5812 5811 5811 5811 5810 5810 5809 5809 5808 5807 5807 5806 5805 5804 5804 5803 5803 5802 5802 5801 5800
5815 5814 5814 5812 5811 5809 5808 5807 5807 5807 5806 5806 5807 5806 5807 5807 5806 5806 5806 5806 5806 5806 5806 5805 5805 5805 5804 5804 5803 5803 5802 5801 5801 5800 5799 5798 5797 5796 5796 5795 5794 5794 5793
5810 5809 5808 5806 5805 5804 5803 5802 5802 5801 5801 5801 5801 5801 5801 5801 5800 5800 5801 5800 5800 5800 5800 5799 5799 5798 5798 5797 5797 5796 5796 5795 5794 5794 5792 5791 5790 5789 5788 5787 5787 5786 5786
5803 5802 5801 5800 5799 5798 5797 5797 5796 5795 5795 5795 5795 5795 5795 5795 5794 5794 5794 5794 5794 5793 5793 5793 5792 5791 5791 5790 5790 5789 5788 5788 5787 5786 5785 5784 5783 5782 5781 5780 5779 5778 5778
5796 5795 5794 5793 5793 5792 5791 5790 5789 5788 5788 5788 5788 5788 5788 5788 5788 5788 5787 5787 5787 5787 5786 5785 5785 5784 5784 5783 5782 5781 5781 5780 5779 5778 5777 5777 5775 5774 5773 5772 5771 5770 5769
5788 5787 5787 5786 5786 5785 5784 5783 5782 5782 5782 5782 5781 5781 5781 5781 5781 5781 5780 5780 5780 5779 5779 5778 5777 5776 5776 5776 5775 5774 5773 5772 5771 5771 5770 5768 5767 5766 5765 5764 5762 5761 5760
5781 5780 5779 5779 5778 5778 5777 5776 5775 5775 5775 5775 5774 5774 5774 5774 5774 5774 5773 5773 5772 5772 5771 5770 5770 5769 5769 5768 5767 5766 5765 5764 5763 5763 5762 5760 5759 5758 5756 5755 5753 5752 5751